Weather Roundup
Issued by NWS Chicago, IL

Home | Current Version | Previous Version | Text Only | Print | Product List | Glossary On
Versions: 1 2 3 4 5 6 7 8 9 10 11 12 13 14 15 16 17 18 19 20 21 22 23 24 25 26 27 28 29 30 31 32 33 34 35 36 37 38 39 40 41 42 43 44 45 46 47 48 49 50
000
NZUS59 KLOT 231710
HRRLOT

CHICAGO AREA WEATHER ROUNDUP
NATIONAL WEATHER SERVICE CHICAGO/ROMEOVILLE IL
1200 PM CDT WED JUL 23 2014

NOTE: "FAIR" INDICATES FEW OR NO CLOUDS BELOW 12,000 FEET WITH NO
SIGNIFICANT WEATHER AND/OR OBSTRUCTIONS TO VISIBILITY.

* THESE STATIONS ARE NOT UNDER NWS QUALITY CONTROL. THEY ALSO MAY NOT
  REPORT WEATHER SUCH AS PRECIPITATION OR FOG.

ILZ005-006-012>014-019>023-231800-
NORTHEAST ILLINOIS

CITY           SKY/WX    TMP DP  RH WIND       PRES   REMARKS
OHARE          MOSUNNY   71  51  49 NE18      30.17R
MIDWAY         MOSUNNY   72  58  61 NE20G25   30.17R
AURORA         SUNNY     75  53  46 NE18G25   30.16S
LANSING*       MOSUNNY   67  56  67 N16G23    30.17R
JOLIET*        SUNNY     73  53  48 N15       30.16S
WAUKEGAN       SUNNY     69  53  56 N17       30.16S
DUPAGE AIRPORT SUNNY     75  55  49 N17G23    30.16R
WHEELING       SUNNY     71  56  58 NE14G24   30.18S
KANKAKEE*      MOSUNNY   72  59  63 N14G21    30.16R
MORRIS*        SUNNY     76  57  53 E9G16     30.15R
LEWIS AIRPORT* SUNNY     72  53  52 N17G24    30.15S
NORTHERLY IS     N/A     65  56  72 N14         N/A
$$

WIZ051-052-058>065-066-070>072-231800-
SOUTHEAST WISCONSIN

CITY           SKY/WX    TMP DP  RH WIND       PRES   REMARKS
MILWAUKEE      MOSUNNY   67  55  65 NE14      30.19R
KENOSHA*       SUNNY     70  55  59 N14G23    30.18S
RACINE*        SUNNY     69  57  65 N15G23    30.20R
BURLINGTON     MOSUNNY   70  55  57 N9        30.18S
WAUKESHA       MOSUNNY   72  50  46 NE12      30.19F
WEST BEND      MOSUNNY   70  46  43 N13G20    30.18S
$$

INZ001>003-010>013-019-020-231800-
NORTHWEST INDIANA

CITY           SKY/WX    TMP DP  RH WIND       PRES   REMARKS
GARY*          MOSUNNY   68  57  68 N16G32    30.17R
MICHIGAN CITY* NOT AVBL
RENSSELAER*    NOT AVBL
VALPARAISO     PTSUNNY   69  59  70 N13G21    30.15R
$$

LMZ740>746-231800-
SOUTHERN LAKE MICHIGAN

STATION/POSITION TIME  SKY/WX   TEMP WIND        PRES    VSBY
                                AIR  DIR/SP/G
                 (UTC)          (F)  (DEG/KT/KT) (MB)    (MI)
HARRISON CRIB    1700            62  360/ 24/ 28   N/A
BURNHAM HARBOR   1700            65  350/ 14/ 19   N/A
CALUMET HARBOR   1700            65  360/ 14/ 19 1020.6R
BURNS HARBOR     NOT AVBL
MICHIGAN CITY    1700            63  340/ 22/ 25   N/A
$$

ABBREVIATIONS USED IN REMARKS
   TC - TEMPERATURE IN CELSIUS
  WCI - WIND CHILL INDEX
   HX - HEAT INDEX
  VSB - VISIBILITY
$$


USA.gov is the U.S. government's official web portal to all federal, state and local government web resources and services.